Overview Statistics Trail Chart Weather Telemetry Raw packets
 

This is the latest recevied weather packets stored in our database for station/object 4S6DRJ-13. If no packets are shown the sender has not sent any weather packets the latest 10 day(s).

<< 318 319 320 321 322 323 324 >>
Time Temp. Humidity Pressure Rain* Wind** Luminosity Snow
1787994990 30.56° C 73% 1008.2 hPa 0 mm 3.13 m/s, 325° 344 W/m² -
1787994929 30.56° C 73% 1008.2 hPa 0 mm 2.68 m/s, 235° 446 W/m² -
1787994868 30.56° C 73% 1008.5 hPa 0 mm 1.79 m/s, 138° 800 W/m² -
1787994807 30.56° C 72% 1008.3 hPa 0 mm 2.24 m/s, 314° 470 W/m² -
1787994746 30.56° C 73% 1008.3 hPa 0 mm 0.89 m/s, 240° 817 W/m² -
1787994685 30.56° C 72% 1008.4 hPa 0 mm 4.02 m/s, 228° 800 W/m² -
1787994624 30.56° C 72% 1008.3 hPa 0 mm 4.02 m/s, 263° 797 W/m² -
1787994563 30.56° C 72% 1008.2 hPa 0 mm 4.02 m/s, 75° 831 W/m² -
1787994502 30.56° C 73% 1008.3 hPa 0 mm 2.68 m/s, 235° 341 W/m² -
1787994441 30.56° C 73% 1008.3 hPa 0 mm 2.24 m/s, 236° 812 W/m² -
1787994380 31.11° C 73% 1008.4 hPa 0 mm 2.24 m/s, 334° 723 W/m² -
1787994319 31.11° C 73% 1008.1 hPa 0 mm 2.24 m/s, 231° 888 W/m² -
1787994258 31.11° C 72% 1008.3 hPa 0 mm 4.02 m/s, 260° 427 W/m² -
1787994198 30.56° C 73% 1008.3 hPa 0 mm 3.13 m/s, 232° 890 W/m² -
1787994136 30.56° C 74% 1008.3 hPa 0 mm 2.68 m/s, 236° 890 W/m² -
1787994075 30.56° C 75% 1008.4 hPa 0 mm 1.79 m/s, 269° 487 W/m² -
1787994014 30.56° C 74% 1008.2 hPa 0 mm 2.68 m/s, 198° 858 W/m² -
1787993953 30.56° C 75% 1008.3 hPa 0 mm 1.34 m/s, 102° 885 W/m² -
1787993892 30.56° C 74% 1008.4 hPa 0 mm 1.34 m/s, 4° 486 W/m² -
1787993831 30.56° C 75% 1008.6 hPa 0 mm 1.79 m/s, 235° 404 W/m² -
1787993778 30.56° C 74% 1008.3 hPa 0 mm 1.79 m/s, 81° 931 W/m² -
1787993709 30.56° C 75% 1008.3 hPa 0 mm 3.58 m/s, 262° 951 W/m² -
1787993648 30.56° C 76% 1008.6 hPa 0 mm 4.02 m/s, 250° 941 W/m² -
1787993587 30.56° C 77% 1008.2 hPa 0 mm 2.68 m/s, 188° 939 W/m² -
1787993526 30° C 77% 1008.4 hPa 0 mm 1.79 m/s, 310° 949 W/m² -

* Rain latest hour (hover to see other rain measurements)
** Current wind speed in m/s (hover to see current wind gust speed)